Location: Unspecified
(0.0000°N, 0.0000°E)
Time: 11:18:21
(UTC+00:00)

XW-2C - Visible Passes

Search period start: 14 December 2019 00:00
Search period end: 24 December 2019 00:00
Orbit: 509 x 528 km, 97.5° (Epoch: 14 December)

Date Brightness Start Highest point End Pass type
(mag) Time Alt. Az. Time Alt. Az. Time Alt. Az.
17 Dec ? 05:23:52 10° NNE 05:27:35 56° ESE 05:31:19 10° S visible
18 Dec ? 05:10:12 10° NE 05:13:36 32° E 05:17:01 10° SSE visible
19 Dec ? 04:56:50 10° NE 04:59:38 20° ESE 05:02:25 10° SSE visible
19 Dec ? 18:24:17 10° SW 18:26:28 15° WSW 18:28:39 10° WNW visible
20 Dec ? 04:44:09 10° ENE 04:45:39 12° ESE 04:47:10 10° SE visible
